COSMOS 1275 DEB, 42119

Orbit data source: Space-Track

COSMOS 1275 DEB, 42119 is space debris in LEO originally from a launch on Thu, 04 Jun 1981 UTC launched from the Plesetsk Missile And Space Complex (PKMTR). Debris objects in space refer to the collection of defunct objects orbiting the Earth. Examples of debris include non-operational satellites, rocket bodies, and fragments generated from explosions, collisions, or faulty payload assembly.

Loading next visibility...
Identifier
42119, 1981-053QF
Orbit
LEO
Country
Flag of CISCIS
Related business
Manufacturer
Unknown
Mission
Spacecraft
Bus & Motor
Unknown
Mass
Unknown
Launch date (UTC)
1981-06-04 (44 years ago)
Launch vehicle
Unknown
Launch site
Plesetsk Missile And Space Complex (PKMTR)
Object type
Payload
Rocket body
Debris
Shape & HBR
Unknown shape, 0.1 m
Radar Cross Section
Small (<0.1 m²)

Expand to show TLE details & history
Last TLE update: 3 days ago

TLE from 3 days ago
0 COSMOS 1275 DEB
1 42119U 81053QF  25290.60148824  .00001605  00000-0  13302-2 0  9998
2 42119  83.1751  59.0265 0046697  89.4779 271.1735 13.87723276 73605
Epoch: 2025-10-17T14:26Z
TLE epoch observation values (Epoch: 2025-10-17T14:26:08.583Z)
Latitude
-0.00009°
Longitude
176.14621°
Altitude
939.004 km
Speed
7.383 km/s
True Right ascension
03h 56m 06s
True Declination
0° 00' 00"
Sunlit
Object was in full shadow at epoch
Visualization orbit readout
Latitude
Unknown
Longitude
Unknown
Altitude
Unknown
Speed
Unknown
Apparent Right ascension
Unknown
Apparent Declination
Unknown
Sunlit
N/A
Visualization observer readout
Local Sidereal Time
22:06:23
Azimuth
Unknown
Elevation
Unknown
Doppler factor
Unknown
Orbital elements
Apogee altitude
967.887 km
Perigee altitude
899.598 km
Semi-major axis
7,311.88 km
Eccentricity
0.00467
Inclination
83.1751°
RAAN
59.0265°
Arg. of periapsis
89.4779°
True anomaly
270.63845°
Mean anomaly
271.1735°
Eccentric anomaly
270.90598°
Mean motion
3.47136 °/min
Orbital period
103.71 mins
BSTAR
0.0013302
Loading maneuver chart data...
Computing Atmospheric mass density...

Documentation

Showing up to 5 results
|